Terug naar catalogus

STARLINK-2454

ActiefCommunicatieVLEO
NORAD 48116·PAYLOAD·🇺🇸 United States

Gelanceerd Apr 7, 2021 vanaf Cape Canaveral Space Force Station

Loading…

Volgende Passages (komende 24 uur)

TLE

VersSource: CelesTrak SupGP

Epoch: Sep 14, 2026, 19:37 UTC

1 48116C 21027AA  26257.81784722  .00024976  00000+0  80304-3 0  2575
2 48116  53.1600   5.6923 0001276  64.8678 279.3599 15.31694692    18

Volg STARLINK-2454 in realtime met AllMySat

Download on the App Store